TimeMDT,TemperatureF,Dew PointF,Humidity,Sea Level PressureIn,VisibilityMPH,Wind Direction,Wind SpeedMPH,Gust SpeedMPH,PrecipitationIn,Events,Conditions,WindDirDegrees,DateUTC
12:53 AM,12.9,9.0,84,30.46,10.0,Calm,Calm,-,N/A,,Clear,0,2013-03-25 06:53:00
1:53 AM,10.9,6.1,81,30.46,10.0,SSE,3.5,-,N/A,,Clear,150,2013-03-25 07:53:00
2:53 AM,8.1,5.0,87,30.46,10.0,SSE,5.8,-,N/A,,Clear,160,2013-03-25 08:53:00
3:53 AM,8.1,5.0,87,30.45,10.0,SSE,4.6,-,N/A,,Clear,150,2013-03-25 09:53:00
4:53 AM,7.0,3.0,84,30.44,10.0,SSE,6.9,-,N/A,,Clear,150,2013-03-25 10:53:00
5:53 AM,7.0,3.0,84,30.45,10.0,SE,8.1,-,N/A,,Clear,140,2013-03-25 11:53:00
6:53 AM,7.0,3.0,84,30.44,10.0,SE,9.2,-,N/A,,Clear,140,2013-03-25 12:53:00
7:33 AM,6.8,3.2,85,30.29,10.0,SSE,10.4,-,N/A,,Scattered Clouds,150,2013-03-25 13:33:00
7:53 AM,8.1,3.9,83,30.44,10.0,SSE,8.1,-,N/A,,Scattered Clouds,150,2013-03-25 13:53:00
8:53 AM,12.0,8.1,84,30.43,10.0,SSE,9.2,-,N/A,,Clear,150,2013-03-25 14:53:00
9:53 AM,16.0,12.0,84,30.43,10.0,SSE,6.9,-,N/A,,Clear,150,2013-03-25 15:53:00
10:53 AM,21.0,15.1,78,30.40,10.0,SSE,8.1,-,N/A,,Clear,160,2013-03-25 16:53:00
11:53 AM,26.1,17.1,69,30.38,10.0,South,9.2,-,N/A,,Clear,170,2013-03-25 17:53:00
12:53 PM,30.0,17.1,59,30.35,10.0,SE,10.4,-,N/A,,Clear,130,2013-03-25 18:53:00
1:53 PM,33.1,19.0,56,30.32,10.0,SE,9.2,-,N/A,,Clear,140,2013-03-25 19:53:00
2:53 PM,36.0,19.0,50,30.30,10.0,SSE,11.5,-,N/A,,Clear,150,2013-03-25 20:53:00
3:53 PM,37.9,19.9,48,30.27,10.0,SE,11.5,18.4,N/A,,Clear,140,2013-03-25 21:53:00
4:53 PM,37.9,19.0,47,30.25,10.0,SE,12.7,-,N/A,,Clear,140,2013-03-25 22:53:00
5:53 PM,37.0,18.0,46,30.25,10.0,SE,13.8,-,N/A,,Clear,140,2013-03-25 23:53:00
6:53 PM,35.1,16.0,46,30.25,10.0,SE,8.1,-,N/A,,Clear,130,2013-03-26 00:53:00
7:53 PM,32.0,18.0,56,30.24,10.0,ESE,6.9,-,N/A,,Clear,110,2013-03-26 01:53:00
8:53 PM,30.0,19.0,64,30.23,10.0,ESE,6.9,-,N/A,,Clear,120,2013-03-26 02:53:00
9:53 PM,28.9,18.0,64,30.22,10.0,SE,5.8,-,N/A,,Clear,130,2013-03-26 03:53:00
10:53 PM,27.0,18.0,69,30.20,10.0,SSE,8.1,-,N/A,,Clear,150,2013-03-26 04:53:00
11:53 PM,27.0,17.1,66,30.17,10.0,SE,10.4,-,N/A,,Clear,140,2013-03-26 05:53:00